Regional Weather Roundup
Issued by NWS

Home | Current Version | Previous Version | Graphics & Text | Print | Product List | Glossary On
Versions: 1 2 3 4 5 6 7 8 9 10 11 12 13 14 15 16 17 18 19 20 21 22 23 24 25 26 27 28 29 30 31 32 33 34 35 36 37 38 39 40 41 42 43 44 45 46 47 48 49 50
000
ASUS43 KMPX 262101
RWRMN
WEATHER ROUNDUP FOR MINNESOTA
NATIONAL WEATHER SERVICE TWIN CITIES/CHANHASSEN MN
300 PM CST SUN FEB 26 2017


NOTE: "FAIR" INDICATES FEW OR NO CLOUDS BELOW 12,000 FEET WITH NO
SIGNIFICANT WEATHER AND/OR OBSTRUCTIONS TO VISIBILITY. N/A MEANS
CURRENT SKY AND/OR WEATHER CONDITIONS ARE NOT AVAILABLE.

MNZ060>063-068>070-262200-
   Twin Cities Metro

CITY           SKY/WX    TMP DP  RH WIND       PRES   REMARKS
TWIN CITIES    MOSUNNY   38  14  37 W14       29.82R
ST PAUL        SUNNY     38  13  35 W15       29.82R
CRYSTAL        SUNNY     35   9  33 W17       29.81R WCI  25
LAKEVILLE      SUNNY     36  21  55 W20G26    29.82R
EDEN PRAIRIE   SUNNY     37  13  37 W16G23    29.82R
SOUTH ST PAUL  MOSUNNY   38  12  35 W15G23    29.81R
LAKE ELMO      FAIR      37  18  44 NW12G22   29.81R
$$
MNZ001>005-007-008-013>017-022>024-027-028-262200-
   Northwest Minnesota

CITY           SKY/WX    TMP DP  RH WIND       PRES   REMARKS
BEMIDJI        SUNNY     20   5  52 W7        29.79S WCI  11
HALLOCK        SUNNY     19   9  63 SW9       29.83R WCI   9
ROSEAU         SUNNY     16   7  67 W12       29.80S WCI   3
WARROAD        SUNNY     18   5  57 SW13      29.79S WCI   4
THIEF RVR FALL   N/A    N/A N/A N/A MISG        N/A
CROOKSTON      SUNNY     18   9  68 W8        29.88R WCI   7
FOSSTON        SUNNY     21   9  58 SW6       29.83S WCI  14
DETROIT LAKES  SUNNY     21  10  63 NW6       29.84S WCI  14
MOORHEAD       SUNNY     18   9  68 CALM      29.89S
PARK RAPIDS    SUNNY     22   5  48 W9        29.79S WCI  12
MAHNOMEN       FAIR      18   8  63 W9        29.84R WCI   7
$$
MNZ006-009>011-018-025>026-262200-
   North Central Minnesota

CITY           SKY/WX    TMP DP  RH WIND       PRES   REMARKS
BAUDETTE       SUNNY     19   2  47 NW9       29.76S WCI   8
FLAG ISLAND    SUNNY     19   1  45 W14G24    29.74F WCI   6
INTL FALLS     SUNNY     18   1  47 W13       29.77S WCI   5
WASKISH        SUNNY     19   7  58 SW9         N/A  WCI   9
BIG FORK       SUNNY     23   0  36 NW6       29.78R WCI  16
LONGVILLE      SUNNY     21   1  42 NW8       29.81S WCI  12
GRAND RAPIDS   SUNNY     23   3  42 W9        29.81R WCI  13
CRANE LAKE     SUNNY     18  -2  41 NW7       29.78S WCI   8
ORR            SUNNY     19  -2  38 NW14G23   29.74R WCI   6
COOK           SUNNY     19   1  45 W12G18    29.76R WCI   7
WALKER         FAIR      21   3  44 NW5       29.80S WCI  15
$$
MNZ012-019>021-037-262200-
   Northeast Minnesota

CITY           SKY/WX    TMP DP  RH WIND       PRES   REMARKS
DULUTH         MOSUNNY   21   2  43 NW14G20   29.76R WCI   8
ELY            SUNNY     19  -2  38 NW15G24   29.73R WCI   5
HIBBING        SUNNY     19   2  47 NW13      29.77R WCI   6
EVELETH        SUNNY     20  -4  35 W12G17    29.77R WCI   8
DULUTH HARBOR  SUNNY     25   9  50 NW12      29.83R WCI  14
TWO HARBORS    SUNNY     27   7  43 NW10G17   29.75R WCI  17
SILVER BAY     SUNNY     25   1  36 W9        29.73R WCI  15
GRAND MARAIS     N/A     25   3  38 VRB7G25   29.74R WCI  17
G MARAIS ARPRT MOSUNNY   16  -2  45 W9G25     29.64R WCI   4
$$
MNZ029>031-032-039>041-046>048-054>057-064-262200-
   West Central Minnesota

CITY           SKY/WX    TMP DP  RH WIND       PRES   REMARKS
FERGUS FALLS   SUNNY     18  10  73 NW8       29.92R WCI   7
WHEATON        CLOUDY    21  12  68 N6        29.90F WCI  14
MORRIS         PTSUNNY   25  12  58 NW8       29.87R WCI  16
ALEXANDRIA     SUNNY     24   9  52 W7        29.84R WCI  16
ELBOW LAKE     PTSUNNY   15   8  72 NW7       29.87S WCI   5
WADENA         SUNNY     19   9  63 W5        29.82S WCI  13
GLENWOOD       SUNNY     27  12  54 NW9       29.84R WCI  17
APPLETON       SUNNY     28  14  54 NW6       29.88R WCI  22
BENSON         MOSUNNY   30   9  40 NW12      29.88R WCI  21
ORTONVILLE       N/A     27  12  54 CALM      29.87S
MADISON        SUNNY     34  19  55 NE5       29.86F WCI  30
WILLMAR        FAIR      30  18  59 W14       29.87R WCI  20
$$
MNZ033>034-036-042>043-049>051-058-059-262200-
   Central Minnesota

CITY           SKY/WX    TMP DP  RH WIND       PRES   REMARKS
ST CLOUD       SUNNY     31  12  45 W10G18    29.82R WCI  22
SAUK CENTRE    FAIR      27  10  48 W8        29.83R WCI  18
PAYNESVILLE    SUNNY     30  13  49 NW9       29.84R WCI  22
AITKIN         SUNNY     25  -6  26 NW8       29.80R WCI  16
PINE RIVER     SUNNY     23   7  50 NW3       29.84S
BRAINERD       SUNNY     23   4  44 CALM      29.82R
STAPLES        SUNNY     21   9  58 W9        29.82S WCI  11
LONG PRAIRIE   FAIR      28   5  37 W5        29.83R WCI  23
LITTLE FALLS   SUNNY     28   3  34 W7        29.83R WCI  21
LITCHFIELD     SUNNY     34  12  40 W13G21    29.84R WCI  25
BUFFALO        SUNNY     33  10  38 W14       29.84R WCI  23
MAPLE LAKE     SUNNY     33  14  45 W10       29.84R WCI  25
HUTCHINSON     SUNNY     33  20  58 W14       29.85R WCI  24
$$
MNZ037-044-045-052-053-262200-
   East Central Minnesota

CITY           SKY/WX    TMP DP  RH WIND       PRES   REMARKS
PRINCETON      MOSUNNY   34  12  40 W12G17    29.82R WCI  25
MORA           SUNNY     30  12  47 NW10G18   29.83R WCI  21
CAMBRIDGE      MOSUNNY   34  16  47 W7        29.80R WCI  28
RUSH CITY      SUNNY     32  14  47 NW10      29.82R WCI  24
MOOSE LAKE     SUNNY     27   3  36 NW8G16    29.80R WCI  18
HINCKLEY       FAIR      32  12  43 NW9       29.81R WCI  24
CLOQUET        SUNNY     21   0  39 NW14      29.78R WCI   8
MCGREGOR       SUNNY     25   1  36 NW10      29.81R WCI  15
$$
MNZ071>073-080-081-089-090-097-098-262200-
   Southwest Minnesota

CITY           SKY/WX    TMP DP  RH WIND       PRES   REMARKS
MONTEVIDEO     SUNNY     32  18  55 NW8       29.89R WCI  25
GRANITE FALLS  SUNNY     33  22  63 NW9       29.88S WCI  25
CANBY          SUNNY     34  21  59 CALM      29.86S
MARSHALL       SUNNY     33  21  61 W7        29.86R WCI  27
REDWOOD FALLS  SUNNY     34  14  43 NW12G20   29.86S WCI  25
OLIVIA         SUNNY     34  21  60 W8G17     29.86R WCI  27
PIPESTONE      PTSUNNY   37  19  48 W15       29.82S
WINDOM         PTSUNNY   36  27  69 W9        29.85R
WORTHINGTON    MOSUNNY   34  26  72 SW14      29.86R WCI  25
JACKSON        SUNNY     34  27  75 SW10      29.86S WCI  26
TRACY          SUNNY     35  25  65 N3        29.85R
SLAYTON        PTSUNNY   36  26  66 SW10      29.84R
$$
MNZ065>067-074>077-082>085-091>093-262200-
   South Central Minnesota

CITY           SKY/WX    TMP DP  RH WIND       PRES   REMARKS
MANKATO          N/A     37  24  59 W18       29.85R
NEW ULM        SUNNY     37  19  48 NW14      29.86R
ST JAMES       MOSUNNY   37  27  65 CALM      29.87R
FAIRMONT       SUNNY     34  26  72 W13       29.87R WCI  25
GLENCOE        SUNNY     34  22  61 W13G20    29.84R WCI  25
FARIBAULT      MOSUNNY   37  23  56 W13G18    29.84R
OWATONNA       SUNNY     34  25  69 SW10      29.85R WCI  26
WASECA         SUNNY     34  27  75 SW13      29.86R WCI  25
ALBERT LEA     SUNNY     32  25  74 W7        29.86R WCI  26
$$
MNZ078>079-086>088-094>096-262200-
   Southeast Minnesota

CITY           SKY/WX    TMP DP  RH WIND       PRES   REMARKS
ROCHESTER      SUNNY     29  24  82 SW14      29.84R WCI  18
RED WING       MOSUNNY   37  19  48 W13G20    29.81R
STANTON        SUNNY     37  22  55 W16       29.82R
WINONA         SUNNY     36  25  64 W8        29.85R
AUSTIN         SUNNY     30  23  74 SW9       29.86R WCI  22
PRESTON        SUNNY     30  22  72 W13       29.86R WCI  20
$$
ABBREVIATIONS USED IN REMARKS
   TC - TEMPERATURES IN CELSIUS
  WCI - WIND CHILL INDEX
   HX - HEAT INDEX
  VSB - VISIBILITY
$$




USA.gov is the U.S. government's official web portal to all federal, state and local government web resources and services.